Location: Baggett Branch
(32.6074°N, 97.0167°W)
Time: 10:34:22
(UTC+00:00)

Cosmos 1697 Rocket - Pass Details

Date: 10 February 2026
Orbit: 830 x 844 km, 71.0° (Epoch: 8 March)

Event Time Altitude Azimuth Distance (km) Brightness Sun altitude
Exits shadow 12:18:37 17° 272° (W) 2,011 4.0 -12.5°
Maximum altitude 12:20:45 20° 301° (WNW) 1,823 3.9 -12.1°
Drops below altitude 10° 12:24:53 10° 348° (NNW) 2,459 4.9 -11.2°
Sets 12:27:59 0° 5° (N) 3,399 5.8 -10.6°
